Location: ??????
(56.0120°N, 39.1740°E)
Time: 07:30:49
(UTC+00:00)

SL-16 R/B - Pass Details

Date: 14 April 2026
Orbit: 839 x 849 km, 71.0° (Epoch: 13 May)

Event Time Altitude Azimuth Distance (km) Brightness Sun altitude
Exits shadow 22:55:02 - 276° (W) 3,459 5.2 -21.6°
Rises 22:55:12 0° 276° (W) 3,404 5.2 -21.6°
Reaches altitude 10° 22:58:16 10° 293° (WNW) 2,473 4.6 -21.4°
Maximum altitude 23:02:31 21° 341° (NNW) 1,811 4.4 -21.2°
Drops below altitude 10° 23:06:48 10° 30° (NNE) 2,482 5.8 -20.9°
Sets 23:09:54 0° 47° (NE) 3,421 6.7 -20.7°
